User: anonymous
Location: Muenchen
(48.1800°N, 11.5800°E)
Time: 09:04:52
(UTC+02:00)
Language:

Sich 1 Rocket - Orbit

View from above orbital plane
View from above orbital plane
View from above satellite
View from above satellite

Ground track
Ground track

The orbit data is extracted from the following two-line orbital elements,

1 23659U 95046C   14108.55139207  .00000493  00000-0  65255-4 0  8818
2 23659 082.5282 297.4301 0026866 055.8810 356.5215 14.77727789  3846
Epoch (UTC): 18 April 2014 13:14:00
Eccentricity: 0.0026866
inclination: 82.5282°
perigee height: 617 km
apogee height: 655 km
right ascension of ascending node: 297.4301°
argument of perigee: 55.8810°
revolutions per day: 14.77727789
mean anomaly at epoch: 356.5215°
orbit number at epoch: 384

The dashed part of the orbit path shows where the satellite is in the earth's shadow,  

DLR